Time,TemperatureF,DewpointF,PressureIn,WindDirection,WindDirectionDegrees,WindSpeedMPH,WindSpeedGustMPH,Humidity,HourlyPrecipIn,Conditions,Clouds,dailyrainin,SoftwareType,DateUTC
2013-08-13 00:01:00,77.0,73.5,29.88,NE,50,0.0,0.0,89,0.00,,,0.00,WUHU216DAVISVP2,2013-08-13 04:01:00,
2013-08-13 00:06:00,77.0,73.5,29.88,NE,50,0.0,0.0,89,0.00,,,0.00,WUHU216DAVISVP2,2013-08-13 04:06:00,
2013-08-13 00:11:00,77.1,73.6,29.88,NE,50,0.0,0.0,89,0.00,,,0.00,WUHU216DAVISVP2,2013-08-13 04:11:00,
2013-08-13 00:16:00,77.1,73.6,29.87,NE,50,0.0,0.0,89,0.00,,,0.00,WUHU216DAVISVP2,2013-08-13 04:16:00,
2013-08-13 00:21:00,77.1,73.6,29.87,NE,50,0.0,0.0,89,0.00,,,0.00,WUHU216DAVISVP2,2013-08-13 04:21:00,
2013-08-13 00:26:00,77.0,73.5,29.86,NE,50,0.0,0.0,89,0.00,,,0.00,WUHU216DAVISVP2,2013-08-13 04:26:00,
2013-08-13 00:31:00,77.0,73.5,29.86,NE,50,0.0,0.0,89,0.00,,,0.00,WUHU216DAVISVP2,2013-08-13 04:31:00,
2013-08-13 00:36:00,76.9,73.4,29.86,NE,50,0.0,0.0,89,0.00,,,0.00,WUHU216DAVISVP2,2013-08-13 04:36:00,
2013-08-13 00:41:00,76.9,73.4,29.86,NE,50,0.0,0.0,89,0.00,,,0.00,WUHU216DAVISVP2,2013-08-13 04:41:00,
2013-08-13 00:46:00,76.8,73.6,29.86,NE,50,0.0,0.0,90,0.00,,,0.00,WUHU216DAVISVP2,2013-08-13 04:46:00,
2013-08-13 00:51:00,76.7,73.5,29.86,NE,50,0.0,0.0,90,0.00,,,0.00,WUHU216DAVISVP2,2013-08-13 04:51:00,
2013-08-13 00:56:00,76.7,73.5,29.86,NE,50,0.0,0.0,90,0.00,,,0.00,WUHU216DAVISVP2,2013-08-13 04:56:00,
2013-08-13 01:01:00,76.7,73.5,29.86,NE,50,0.0,0.0,90,0.00,,,0.00,WUHU216DAVISVP2,2013-08-13 05:01:00,
2013-08-13 01:06:00,76.6,73.4,29.86,NE,50,0.0,0.0,90,0.00,,,0.00,WUHU216DAVISVP2,2013-08-13 05:06:00,
2013-08-13 01:11:00,76.6,73.8,29.85,NE,50,0.0,0.0,91,0.00,,,0.00,WUHU216DAVISVP2,2013-08-13 05:11:00,
2013-08-13 01:16:00,76.5,73.7,29.85,NE,50,0.0,0.0,91,0.00,,,0.00,WUHU216DAVISVP2,2013-08-13 05:16:00,
2013-08-13 01:21:00,76.5,73.7,29.85,NE,50,0.0,0.0,91,0.00,,,0.00,WUHU216DAVISVP2,2013-08-13 05:21:00,
2013-08-13 01:26:00,76.4,73.6,29.85,NE,50,0.0,0.0,91,0.00,,,0.00,WUHU216DAVISVP2,2013-08-13 05:26:00,
2013-08-13 01:31:00,76.4,73.6,29.85,NE,50,0.0,0.0,91,0.00,,,0.00,WUHU216DAVISVP2,2013-08-13 05:31:00,
2013-08-13 01:36:00,76.4,73.9,29.85,NE,50,0.0,0.0,92,0.00,,,0.00,WUHU216DAVISVP2,2013-08-13 05:36:00,
2013-08-13 01:41:00,76.5,74.0,29.84,NE,50,0.0,0.0,92,0.00,,,0.00,WUHU216DAVISVP2,2013-08-13 05:41:00,
2013-08-13 01:46:00,76.5,74.0,29.84,NE,50,0.0,0.0,92,0.00,,,0.00,WUHU216DAVISVP2,2013-08-13 05:46:00,
2013-08-13 01:51:00,76.5,74.0,29.84,NE,50,0.0,0.0,92,0.00,,,0.00,WUHU216DAVISVP2,2013-08-13 05:51:00,
2013-08-13 01:56:00,76.6,74.1,29.84,NE,50,0.0,0.0,92,0.00,,,0.00,WUHU216DAVISVP2,2013-08-13 05:56:00,
2013-08-13 02:01:00,76.6,74.1,29.84,NE,50,0.0,0.0,92,0.00,,,0.00,WUHU216DAVISVP2,2013-08-13 06:01:00,
2013-08-13 02:06:00,76.6,74.1,29.84,NE,50,0.0,0.0,92,0.00,,,0.00,WUHU216DAVISVP2,2013-08-13 06:06:00,
2013-08-13 02:11:00,76.6,74.1,29.83,NE,50,0.0,0.0,92,0.00,,,0.00,WUHU216DAVISVP2,2013-08-13 06:11:00,
2013-08-13 02:16:00,76.6,74.1,29.83,NE,50,0.0,0.0,92,0.00,,,0.00,WUHU216DAVISVP2,2013-08-13 06:16:00,
2013-08-13 02:21:00,76.6,74.1,29.83,NE,50,0.0,0.0,92,0.00,,,0.00,WUHU216DAVISVP2,2013-08-13 06:21:00,
2013-08-13 02:26:00,76.6,74.1,29.83,NE,50,0.0,0.0,92,0.00,,,0.00,WUHU216DAVISVP2,2013-08-13 06:26:00,
2013-08-13 02:31:00,76.5,73.7,29.82,NE,50,0.0,1.0,91,0.00,,,0.00,WUHU216DAVISVP2,2013-08-13 06:31:00,
2013-08-13 02:36:00,76.5,73.7,29.82,NE,50,0.0,1.0,91,0.00,,,0.00,WUHU216DAVISVP2,2013-08-13 06:36:00,
2013-08-13 02:41:00,76.5,73.7,29.82,NE,50,0.0,1.0,91,0.00,,,0.00,WUHU216DAVISVP2,2013-08-13 06:41:00,
2013-08-13 02:46:00,76.4,73.6,29.81,NE,50,1.0,1.0,91,0.00,,,0.00,WUHU216DAVISVP2,2013-08-13 06:46:00,
2013-08-13 02:51:00,76.4,73.2,29.81,NE,50,0.0,1.0,90,0.00,,,0.00,WUHU216DAVISVP2,2013-08-13 06:51:00,
2013-08-13 02:56:00,76.4,73.2,29.81,NE,50,0.0,1.0,90,0.00,,,0.00,WUHU216DAVISVP2,2013-08-13 06:56:00,
2013-08-13 03:01:00,76.4,72.9,29.81,NE,50,0.0,1.0,89,0.00,,,0.00,WUHU216DAVISVP2,2013-08-13 07:01:00,
2013-08-13 03:06:00,76.4,72.9,29.81,NE,50,0.0,1.0,89,0.00,,,0.00,WUHU216DAVISVP2,2013-08-13 07:06:00,
2013-08-13 03:11:00,76.3,72.8,29.81,NE,50,0.0,1.0,89,0.00,,,0.00,WUHU216DAVISVP2,2013-08-13 07:11:00,
2013-08-13 03:16:00,76.3,72.5,29.81,NE,50,0.0,1.0,88,0.00,,,0.00,WUHU216DAVISVP2,2013-08-13 07:16:00,
2013-08-13 03:21:00,76.3,72.5,29.81,NE,50,0.0,1.0,88,0.00,,,0.00,WUHU216DAVISVP2,2013-08-13 07:21:00,
2013-08-13 03:26:00,76.4,72.3,29.81,NE,50,0.0,1.0,87,0.00,,,0.00,WUHU216DAVISVP2,2013-08-13 07:26:00,
2013-08-13 03:31:00,76.6,72.5,29.81,ENE,57,0.0,1.0,87,0.00,,,0.00,WUHU216DAVISVP2,2013-08-13 07:31:00,
2013-08-13 03:36:00,76.7,72.2,29.80,ENE,57,0.0,1.0,86,0.00,,,0.00,WUHU216DAVISVP2,2013-08-13 07:36:00,
2013-08-13 03:41:00,76.8,72.3,29.80,ENE,72,1.0,2.0,86,0.00,,,0.00,WUHU216DAVISVP2,2013-08-13 07:41:00,
2013-08-13 03:46:00,76.9,72.4,29.80,ENE,72,0.0,2.0,86,0.00,,,0.00,WUHU216DAVISVP2,2013-08-13 07:46:00,
2013-08-13 03:51:00,76.9,72.4,29.80,ENE,72,0.0,2.0,86,0.00,,,0.00,WUHU216DAVISVP2,2013-08-13 07:51:00,
2013-08-13 03:56:00,76.9,72.4,29.80,ENE,73,0.0,2.0,86,0.00,,,0.00,WUHU216DAVISVP2,2013-08-13 07:56:00,
2013-08-13 04:01:00,77.0,72.5,29.79,ENE,73,0.0,2.0,86,0.00,,,0.00,WUHU216DAVISVP2,2013-08-13 08:01:00,
2013-08-13 04:06:00,77.0,72.5,29.79,ENE,73,0.0,2.0,86,0.00,,,0.00,WUHU216DAVISVP2,2013-08-13 08:06:00,
2013-08-13 04:11:00,77.0,72.5,29.79,East,96,0.0,2.0,86,0.00,,,0.00,WUHU216DAVISVP2,2013-08-13 08:11:00,
2013-08-13 04:16:00,77.1,72.6,29.79,ESE,102,0.0,2.0,86,0.00,,,0.00,WUHU216DAVISVP2,2013-08-13 08:16:00,
2013-08-13 04:21:00,77.1,73.0,29.79,ESE,102,0.0,2.0,87,0.00,,,0.00,WUHU216DAVISVP2,2013-08-13 08:21:00,
2013-08-13 04:26:00,77.1,73.0,29.78,ESE,102,0.0,2.0,87,0.00,,,0.00,WUHU216DAVISVP2,2013-08-13 08:26:00,
2013-08-13 04:31:00,77.1,73.0,29.78,ESE,102,0.0,1.0,87,0.00,,,0.00,WUHU216DAVISVP2,2013-08-13 08:31:00,
2013-08-13 04:36:00,77.1,73.0,29.78,ESE,102,0.0,2.0,87,0.00,,,0.00,WUHU216DAVISVP2,2013-08-13 08:36:00,
2013-08-13 04:41:00,77.1,73.0,29.78,ESE,102,1.0,2.0,87,0.00,,,0.00,WUHU216DAVISVP2,2013-08-13 08:41:00,
2013-08-13 04:46:00,77.1,73.0,29.78,ESE,102,0.0,2.0,87,0.00,,,0.00,WUHU216DAVISVP2,2013-08-13 08:46:00,
2013-08-13 04:51:00,77.1,73.3,29.77,ESE,109,1.0,3.0,88,0.00,,,0.00,WUHU216DAVISVP2,2013-08-13 08:51:00,
2013-08-13 04:56:00,77.1,73.3,29.76,ESE,109,0.0,3.0,88,0.00,,,0.00,WUHU216DAVISVP2,2013-08-13 08:56:00,
2013-08-13 05:01:00,77.1,73.3,29.76,ESE,109,0.0,3.0,88,0.00,,,0.00,WUHU216DAVISVP2,2013-08-13 09:01:00,
2013-08-13 05:06:00,77.0,73.2,29.75,ESE,112,0.0,3.0,88,0.00,,,0.00,WUHU216DAVISVP2,2013-08-13 09:06:00,
2013-08-13 05:11:00,77.0,73.2,29.75,ESE,112,0.0,2.0,88,0.00,,,0.00,WUHU216DAVISVP2,2013-08-13 09:11:00,
2013-08-13 05:16:00,77.0,73.2,29.75,ESE,114,1.0,2.0,88,0.00,,,0.00,WUHU216DAVISVP2,2013-08-13 09:16:00,
2013-08-13 05:21:00,77.0,73.2,29.75,ESE,118,0.0,2.0,88,0.00,,,0.00,WUHU216DAVISVP2,2013-08-13 09:21:00,
2013-08-13 05:26:00,77.1,73.6,29.75,ESE,122,0.0,2.0,89,0.00,,,0.00,WUHU216DAVISVP2,2013-08-13 09:26:00,
2013-08-13 05:31:00,77.1,73.6,29.75,South,182,0.0,2.0,89,0.00,,,0.00,WUHU216DAVISVP2,2013-08-13 09:31:00,
2013-08-13 05:36:00,77.1,73.6,29.75,SSW,195,0.0,2.0,89,0.00,,,0.00,WUHU216DAVISVP2,2013-08-13 09:36:00,
2013-08-13 05:41:00,77.0,73.5,29.75,SSW,195,0.0,2.0,89,0.00,,,0.00,WUHU216DAVISVP2,2013-08-13 09:41:00,
2013-08-13 05:46:00,77.1,73.9,29.75,SSW,196,0.0,2.0,90,0.00,,,0.00,WUHU216DAVISVP2,2013-08-13 09:46:00,
2013-08-13 05:51:00,77.1,73.9,29.75,SSW,196,0.0,2.0,90,0.00,,,0.00,WUHU216DAVISVP2,2013-08-13 09:51:00,
2013-08-13 05:56:00,77.1,73.9,29.75,SSW,195,0.0,2.0,90,0.00,,,0.00,WUHU216DAVISVP2,2013-08-13 09:56:00,
2013-08-13 06:01:00,77.1,73.9,29.75,SSW,195,0.0,2.0,90,0.00,,,0.00,WUHU216DAVISVP2,2013-08-13 10:01:00,
2013-08-13 06:06:00,77.2,74.4,29.74,SSW,203,0.0,2.0,91,0.00,,,0.00,WUHU216DAVISVP2,2013-08-13 10:06:00,
2013-08-13 06:11:00,77.3,74.5,29.74,SSW,203,0.0,2.0,91,0.00,,,0.00,WUHU216DAVISVP2,2013-08-13 10:11:00,
2013-08-13 06:16:00,77.3,74.5,29.74,SW,216,0.0,2.0,91,0.00,,,0.00,WUHU216DAVISVP2,2013-08-13 10:16:00,
2013-08-13 06:21:00,77.3,74.5,29.74,SW,216,0.0,2.0,91,0.00,,,0.00,WUHU216DAVISVP2,2013-08-13 10:21:00,
2013-08-13 06:26:00,77.3,74.5,29.74,SW,221,1.0,2.0,91,0.00,,,0.00,WUHU216DAVISVP2,2013-08-13 10:26:00,
2013-08-13 06:31:00,77.3,74.5,29.74,SW,221,0.0,2.0,91,0.00,,,0.00,WUHU216DAVISVP2,2013-08-13 10:31:00,
2013-08-13 06:36:00,77.2,74.4,29.74,SW,221,0.0,2.0,91,0.00,,,0.00,WUHU216DAVISVP2,2013-08-13 10:36:00,
2013-08-13 06:41:00,77.2,74.4,29.74,South,180,1.0,4.0,91,0.00,,,0.00,WUHU216DAVISVP2,2013-08-13 10:41:00,
2013-08-13 06:46:00,77.1,74.3,29.74,South,180,0.0,4.0,91,0.00,,,0.00,WUHU216DAVISVP2,2013-08-13 10:46:00,
2013-08-13 06:51:00,77.1,74.3,29.74,South,181,1.0,4.0,91,0.00,,,0.00,WUHU216DAVISVP2,2013-08-13 10:51:00,
2013-08-13 06:56:00,77.1,74.3,29.74,SSW,206,0.0,4.0,91,0.00,,,0.00,WUHU216DAVISVP2,2013-08-13 10:56:00,
2013-08-13 07:01:00,77.1,74.3,29.74,SSW,208,4.0,4.0,91,0.00,,,0.00,WUHU216DAVISVP2,2013-08-13 11:01:00,
2013-08-13 07:06:00,77.1,74.3,29.74,SW,222,0.0,4.0,91,0.00,,,0.00,WUHU216DAVISVP2,2013-08-13 11:06:00,
2013-08-13 07:11:00,77.1,74.3,29.74,SW,221,0.0,4.0,91,0.00,,,0.00,WUHU216DAVISVP2,2013-08-13 11:11:00,
2013-08-13 07:16:00,77.0,74.2,29.74,SW,221,0.0,4.0,91,0.00,,,0.00,WUHU216DAVISVP2,2013-08-13 11:16:00,
2013-08-13 07:21:00,77.1,74.3,29.73,SW,222,0.0,2.0,91,0.00,,,0.00,WUHU216DAVISVP2,2013-08-13 11:21:00,
2013-08-13 07:26:00,77.1,74.3,29.74,SSW,204,0.0,2.0,91,0.00,,,0.00,WUHU216DAVISVP2,2013-08-13 11:26:00,
2013-08-13 07:31:00,77.1,74.3,29.73,SW,221,0.0,2.0,91,0.00,,,0.00,WUHU216DAVISVP2,2013-08-13 11:31:00,
2013-08-13 07:36:00,77.2,74.4,29.73,SSW,205,1.0,2.0,91,0.00,,,0.00,WUHU216DAVISVP2,2013-08-13 11:36:00,
2013-08-13 07:41:00,77.3,74.5,29.73,West,262,0.0,2.0,91,0.00,,,0.00,WUHU216DAVISVP2,2013-08-13 11:41:00,
2013-08-13 07:46:00,77.4,74.2,29.73,SSE,149,1.0,2.0,90,0.00,,,0.00,WUHU216DAVISVP2,2013-08-13 11:46:00,
2013-08-13 07:51:00,77.5,74.3,29.74,SW,217,1.0,3.0,90,0.00,,,0.00,WUHU216DAVISVP2,2013-08-13 11:51:00,
2013-08-13 07:56:00,77.6,74.4,29.74,SW,215,0.0,3.0,90,0.00,,,0.00,WUHU216DAVISVP2,2013-08-13 11:56:00,
2013-08-13 08:01:00,77.6,74.4,29.73,SW,216,1.0,3.0,90,0.00,,,0.00,WUHU216DAVISVP2,2013-08-13 12:01:00,
2013-08-13 08:06:00,77.8,74.6,29.73,SW,225,0.0,4.0,90,0.00,,,0.00,WUHU216DAVISVP2,2013-08-13 12:06:00,
2013-08-13 08:11:00,77.8,74.6,29.74,SW,222,2.0,5.0,90,0.00,,,0.00,WUHU216DAVISVP2,2013-08-13 12:11:00,
2013-08-13 08:16:00,77.9,74.4,29.74,SW,231,2.0,5.0,89,0.00,,,0.00,WUHU216DAVISVP2,2013-08-13 12:16:00,
2013-08-13 08:21:00,78.1,74.9,29.74,SSW,195,0.0,5.0,90,0.00,,,0.00,WUHU216DAVISVP2,2013-08-13 12:21:00,
2013-08-13 08:26:00,78.3,74.8,29.74,SW,222,2.0,6.0,89,0.00,,,0.00,WUHU216DAVISVP2,2013-08-13 12:26:00,
2013-08-13 08:31:00,78.3,74.8,29.74,SW,236,1.0,7.0,89,0.00,,,0.00,WUHU216DAVISVP2,2013-08-13 12:31:00,
2013-08-13 08:36:00,78.3,74.8,29.74,South,177,1.0,7.0,89,0.00,,,0.00,WUHU216DAVISVP2,2013-08-13 12:36:00,
2013-08-13 08:41:00,78.2,74.7,29.74,South,172,0.0,7.0,89,0.00,,,0.00,WUHU216DAVISVP2,2013-08-13 12:41:00,
2013-08-13 08:46:00,78.2,74.7,29.74,SW,216,0.0,7.0,89,0.00,,,0.00,WUHU216DAVISVP2,2013-08-13 12:46:00,
2013-08-13 08:51:00,78.4,74.9,29.74,SW,232,0.0,3.0,89,0.00,,,0.00,WUHU216DAVISVP2,2013-08-13 12:51:00,
2013-08-13 08:56:00,78.6,74.8,29.74,SW,235,2.0,3.0,88,0.00,,,0.00,WUHU216DAVISVP2,2013-08-13 12:56:00,
2013-08-13 09:01:00,78.7,74.9,29.74,SW,226,1.0,3.0,88,0.00,,,0.00,WUHU216DAVISVP2,2013-08-13 13:01:00,
2013-08-13 09:06:00,78.8,75.0,29.74,SW,226,0.0,3.0,88,0.00,,,0.00,WUHU216DAVISVP2,2013-08-13 13:06:00,
2013-08-13 09:11:00,79.0,74.8,29.74,SW,226,0.0,3.0,87,0.00,,,0.00,WUHU216DAVISVP2,2013-08-13 13:11:00,
2013-08-13 09:16:00,79.4,75.2,29.74,SW,226,2.0,2.0,87,0.00,,,0.00,WUHU216DAVISVP2,2013-08-13 13:16:00,
2013-08-13 09:21:00,79.7,74.8,29.74,SW,233,0.0,3.0,85,0.00,,,0.00,WUHU216DAVISVP2,2013-08-13 13:21:00,
2013-08-13 09:26:00,79.8,74.9,29.74,NNW,346,2.0,3.0,85,0.00,,,0.00,WUHU216DAVISVP2,2013-08-13 13:26:00,
2013-08-13 09:31:00,79.7,74.8,29.74,SSW,202,0.0,3.0,85,0.00,,,0.00,WUHU216DAVISVP2,2013-08-13 13:31:00,
2013-08-13 09:36:00,79.7,75.2,29.73,NNE,16,1.0,3.0,86,0.00,,,0.00,WUHU216DAVISVP2,2013-08-13 13:36:00,
2013-08-13 09:41:00,79.7,75.2,29.73,North,359,0.0,3.0,86,0.00,,,0.00,WUHU216DAVISVP2,2013-08-13 13:41:00,
2013-08-13 09:46:00,80.0,75.1,29.72,SW,221,0.0,3.0,85,0.00,,,0.00,WUHU216DAVISVP2,2013-08-13 13:46:00,
2013-08-13 09:51:00,80.4,74.8,29.72,South,170,0.0,4.0,83,0.00,,,0.00,WUHU216DAVISVP2,2013-08-13 13:51:00,
2013-08-13 09:56:00,80.9,74.6,29.71,SW,220,3.0,4.0,81,0.00,,,0.00,WUHU216DAVISVP2,2013-08-13 13:56:00,
2013-08-13 10:01:00,81.2,74.6,29.72,SW,225,3.0,5.0,80,0.00,,,0.00,WUHU216DAVISVP2,2013-08-13 14:01:00,
2013-08-13 10:06:00,81.2,74.9,29.73,NNW,337,2.0,5.0,81,0.00,,,0.00,WUHU216DAVISVP2,2013-08-13 14:06:00,
2013-08-13 10:11:00,80.6,74.0,29.73,SW,229,0.0,7.0,80,0.00,,,0.00,WUHU216DAVISVP2,2013-08-13 14:11:00,
2013-08-13 10:16:00,80.1,74.2,29.74,NW,318,2.0,8.0,82,0.00,,,0.00,WUHU216DAVISVP2,2013-08-13 14:16:00,
2013-08-13 10:21:00,80.0,74.1,29.74,NW,312,4.0,8.0,82,0.00,,,0.00,WUHU216DAVISVP2,2013-08-13 14:21:00,
2013-08-13 10:26:00,79.9,74.0,29.75,ESE,110,1.0,8.0,82,0.00,,,0.00,WUHU216DAVISVP2,2013-08-13 14:26:00,
2013-08-13 10:31:00,79.6,73.4,29.75,SSW,206,3.0,8.0,81,0.00,,,0.00,WUHU216DAVISVP2,2013-08-13 14:31:00,
2013-08-13 10:36:00,79.1,72.5,29.75,SSW,212,2.0,6.0,80,0.00,,,0.00,WUHU216DAVISVP2,2013-08-13 14:36:00,
2013-08-13 10:41:00,79.0,72.8,29.75,West,266,1.0,6.0,81,0.00,,,0.00,WUHU216DAVISVP2,2013-08-13 14:41:00,
2013-08-13 10:46:00,78.8,72.2,29.75,SW,219,2.0,8.0,80,0.00,,,0.00,WUHU216DAVISVP2,2013-08-13 14:46:00,
2013-08-13 10:51:00,79.0,72.4,29.75,SW,233,2.0,8.0,80,0.00,,,0.00,WUHU216DAVISVP2,2013-08-13 14:51:00,
2013-08-13 10:56:00,80.0,72.7,29.75,SSW,201,0.0,8.0,78,0.00,,,0.00,WUHU216DAVISVP2,2013-08-13 14:56:00,
2013-08-13 11:01:00,80.7,72.6,29.75,NNW,341,1.0,8.0,76,0.00,,,0.00,WUHU216DAVISVP2,2013-08-13 15:01:00,
2013-08-13 11:06:00,81.1,72.6,29.75,NW,306,3.0,6.0,75,0.00,,,0.00,WUHU216DAVISVP2,2013-08-13 15:06:00,
2013-08-13 11:11:00,81.0,73.3,29.75,NW,312,1.0,7.0,77,0.00,,,0.00,WUHU216DAVISVP2,2013-08-13 15:11:00,
2013-08-13 11:16:00,81.2,72.7,29.74,WSW,257,3.0,7.0,75,0.00,,,0.00,WUHU216DAVISVP2,2013-08-13 15:16:00,
2013-08-13 11:21:00,80.6,72.5,29.75,NNE,19,3.0,11.0,76,0.00,,,0.00,WUHU216DAVISVP2,2013-08-13 15:21:00,
2013-08-13 11:26:00,79.7,72.0,29.75,WSW,256,5.0,11.0,77,0.00,,,0.00,WUHU216DAVISVP2,2013-08-13 15:26:00,
2013-08-13 11:31:00,79.7,72.4,29.75,NE,37,2.0,11.0,78,0.00,,,0.00,WUHU216DAVISVP2,2013-08-13 15:31:00,
2013-08-13 11:36:00,79.8,72.1,29.75,NW,322,3.0,11.0,77,0.00,,,0.00,WUHU216DAVISVP2,2013-08-13 15:36:00,
2013-08-13 11:42:00,79.7,72.0,29.75,NNW,331,1.0,10.0,77,0.00,,,0.00,WUHU216DAVISVP2,2013-08-13 15:42:00,
2013-08-13 11:47:00,79.6,72.3,29.75,WNW,291,2.0,9.0,78,0.00,,,0.00,WUHU216DAVISVP2,2013-08-13 15:47:00,
2013-08-13 11:52:00,79.7,72.0,29.75,NW,325,3.0,9.0,77,0.00,,,0.00,WUHU216DAVISVP2,2013-08-13 15:52:00,
2013-08-13 11:57:00,79.3,70.9,29.75,NNW,332,1.0,7.0,75,0.00,,,0.00,WUHU216DAVISVP2,2013-08-13 15:57:00,
2013-08-13 12:02:00,79.2,70.8,29.75,WNW,283,0.0,7.0,75,0.00,,,0.00,WUHU216DAVISVP2,2013-08-13 16:02:00,
2013-08-13 12:07:00,79.3,71.2,29.75,NNW,338,0.0,7.0,76,0.00,,,0.00,WUHU216DAVISVP2,2013-08-13 16:07:00,
2013-08-13 12:12:00,79.4,71.3,29.75,NNE,16,1.0,7.0,76,0.00,,,0.00,WUHU216DAVISVP2,2013-08-13 16:12:00,
2013-08-13 12:17:00,79.4,71.3,29.75,NNW,330,0.0,5.0,76,0.00,,,0.00,WUHU216DAVISVP2,2013-08-13 16:17:00,
2013-08-13 12:22:00,79.5,71.4,29.75,North,9,1.0,5.0,76,0.00,,,0.00,WUHU216DAVISVP2,2013-08-13 16:22:00,
2013-08-13 12:27:00,79.2,71.1,29.75,North,4,1.0,5.0,76,0.00,,,0.00,WUHU216DAVISVP2,2013-08-13 16:27:00,
2013-08-13 12:32:00,79.4,71.7,29.75,NE,35,2.0,5.0,77,0.00,,,0.00,WUHU216DAVISVP2,2013-08-13 16:32:00,
2013-08-13 12:37:00,79.2,71.1,29.75,North,354,2.0,7.0,76,0.00,,,0.00,WUHU216DAVISVP2,2013-08-13 16:37:00,
2013-08-13 12:42:00,78.7,70.3,29.75,North,10,3.0,9.0,75,0.00,,,0.00,WUHU216DAVISVP2,2013-08-13 16:42:00,
2013-08-13 12:47:00,78.4,70.4,29.75,NNW,346,1.0,9.0,76,0.00,,,0.00,WUHU216DAVISVP2,2013-08-13 16:47:00,
2013-08-13 12:52:00,78.5,70.1,29.75,WNW,295,0.0,9.0,75,0.00,,,0.00,WUHU216DAVISVP2,2013-08-13 16:52:00,
2013-08-13 12:57:00,78.4,70.0,29.75,NW,308,0.0,9.0,75,0.00,,,0.00,WUHU216DAVISVP2,2013-08-13 16:57:00,
2013-08-13 13:02:00,78.4,70.4,29.75,South,191,0.0,6.0,76,0.00,,,0.00,WUHU216DAVISVP2,2013-08-13 17:02:00,
2013-08-13 13:07:00,78.5,70.5,29.74,South,189,0.0,6.0,76,0.00,,,0.00,WUHU216DAVISVP2,2013-08-13 17:07:00,
2013-08-13 13:12:00,78.7,70.3,29.75,SE,124,0.0,6.0,75,0.00,,,0.00,WUHU216DAVISVP2,2013-08-13 17:12:00,
2013-08-13 13:17:00,79.4,70.2,29.75,NNW,339,1.0,5.0,73,0.00,,,0.00,WUHU216DAVISVP2,2013-08-13 17:17:00,
2013-08-13 13:22:00,79.9,70.7,29.74,NNW,328,3.0,5.0,73,0.00,,,0.00,WUHU216DAVISVP2,2013-08-13 17:22:00,
2013-08-13 13:27:00,79.3,69.7,29.74,NW,316,0.0,6.0,72,0.00,,,0.00,WUHU216DAVISVP2,2013-08-13 17:27:00,
2013-08-13 13:32:00,79.5,70.7,29.74,West,278,1.0,6.0,74,0.00,,,0.00,WUHU216DAVISVP2,2013-08-13 17:32:00,
2013-08-13 13:37:00,80.3,70.7,29.74,West,259,0.0,6.0,72,0.00,,,0.00,WUHU216DAVISVP2,2013-08-13 17:37:00,
2013-08-13 13:42:00,80.8,70.3,29.74,NW,326,0.0,6.0,70,0.00,,,0.00,WUHU216DAVISVP2,2013-08-13 17:42:00,
2013-08-13 13:47:00,81.1,70.6,29.74,North,354,2.0,7.0,70,0.00,,,0.00,WUHU216DAVISVP2,2013-08-13 17:47:00,
2013-08-13 13:52:00,81.2,69.9,29.74,NNW,327,2.0,7.0,68,0.00,,,0.00,WUHU216DAVISVP2,2013-08-13 17:52:00,
2013-08-13 13:57:00,81.1,70.6,29.74,NNE,12,2.0,7.0,70,0.00,,,0.00,WUHU216DAVISVP2,2013-08-13 17:57:00,
2013-08-13 14:02:00,82.0,70.2,29.74,NNE,27,1.0,5.0,67,0.00,,,0.00,WUHU216DAVISVP2,2013-08-13 18:02:00,
2013-08-13 14:07:00,81.8,70.4,29.74,NE,37,0.0,5.0,68,0.00,,,0.00,WUHU216DAVISVP2,2013-08-13 18:07:00,
2013-08-13 14:12:00,82.5,71.1,29.74,NW,320,1.0,5.0,68,0.00,,,0.00,WUHU216DAVISVP2,2013-08-13 18:12:00,
2013-08-13 14:17:00,83.5,71.2,29.73,NNW,345,3.0,5.0,66,0.00,,,0.00,WUHU216DAVISVP2,2013-08-13 18:17:00,
2013-08-13 14:22:00,82.8,70.5,29.73,NW,320,4.0,7.0,66,0.00,,,0.00,WUHU216DAVISVP2,2013-08-13 18:22:00,
2013-08-13 14:27:00,82.3,70.5,29.73,NNE,31,4.0,7.0,67,0.00,,,0.00,WUHU216DAVISVP2,2013-08-13 18:27:00,
2013-08-13 14:32:00,82.7,70.4,29.73,NNW,332,1.0,7.0,66,0.00,,,0.00,WUHU216DAVISVP2,2013-08-13 18:32:00,
2013-08-13 14:37:00,83.2,70.0,29.73,NNW,348,4.0,7.0,64,0.00,,,0.00,WUHU216DAVISVP2,2013-08-13 18:37:00,
2013-08-13 14:42:00,82.7,70.0,29.73,NW,314,2.0,7.0,65,0.00,,,0.00,WUHU216DAVISVP2,2013-08-13 18:42:00,
2013-08-13 14:47:00,83.3,70.6,29.72,SW,223,0.0,7.0,65,0.00,,,0.00,WUHU216DAVISVP2,2013-08-13 18:47:00,
2013-08-13 14:52:00,83.9,70.2,29.72,NW,309,1.0,7.0,63,0.00,,,0.00,WUHU216DAVISVP2,2013-08-13 18:52:00,
2013-08-13 14:57:00,84.1,70.4,29.73,NNW,340,1.0,5.0,63,0.00,,,0.00,WUHU216DAVISVP2,2013-08-13 18:57:00,
2013-08-13 15:02:00,84.1,70.4,29.72,North,4,0.0,4.0,63,0.00,,,0.00,WUHU216DAVISVP2,2013-08-13 19:02:00,
2013-08-13 15:07:00,84.1,70.4,29.73,NNW,339,2.0,5.0,63,0.00,,,0.00,WUHU216DAVISVP2,2013-08-13 19:07:00,
2013-08-13 15:12:00,84.4,71.2,29.72,SSW,207,0.0,5.0,64,0.00,,,0.00,WUHU216DAVISVP2,2013-08-13 19:12:00,
2013-08-13 15:17:00,85.0,71.3,29.72,SW,215,3.0,5.0,63,0.00,,,0.00,WUHU216DAVISVP2,2013-08-13 19:17:00,
2013-08-13 15:22:00,85.5,71.3,29.72,SSW,209,1.0,4.0,62,0.00,,,0.00,WUHU216DAVISVP2,2013-08-13 19:22:00,
2013-08-13 15:27:00,85.4,70.7,29.72,NW,326,2.0,5.0,61,0.00,,,0.00,WUHU216DAVISVP2,2013-08-13 19:27:00,
2013-08-13 15:32:00,84.5,70.3,29.72,NW,304,4.0,6.0,62,0.00,,,0.00,WUHU216DAVISVP2,2013-08-13 19:32:00,
2013-08-13 15:37:00,83.3,70.6,29.72,West,273,3.0,8.0,65,0.00,,,0.00,WUHU216DAVISVP2,2013-08-13 19:37:00,
2013-08-13 15:42:00,82.8,70.5,29.72,WNW,284,0.0,8.0,66,0.00,,,0.00,WUHU216DAVISVP2,2013-08-13 19:42:00,
2013-08-13 15:47:00,83.0,70.7,29.72,NW,319,3.0,8.0,66,0.00,,,0.00,WUHU216DAVISVP2,2013-08-13 19:47:00,
2013-08-13 15:52:00,83.3,71.5,29.72,NW,320,1.0,7.0,67,0.00,,,0.00,WUHU216DAVISVP2,2013-08-13 19:52:00,
2013-08-13 15:57:00,83.5,70.8,29.72,North,10,2.0,7.0,65,0.00,,,0.00,WUHU216DAVISVP2,2013-08-13 19:57:00,
2013-08-13 16:02:00,83.2,70.9,29.72,NW,322,2.0,6.0,66,0.00,,,0.00,WUHU216DAVISVP2,2013-08-13 20:02:00,
2013-08-13 16:07:00,82.7,71.3,29.72,WNW,293,2.0,6.0,68,0.00,,,0.00,WUHU216DAVISVP2,2013-08-13 20:07:00,
2013-08-13 16:13:00,82.9,71.1,29.71,NNW,327,3.0,6.0,67,0.00,,,0.00,WUHU216DAVISVP2,2013-08-13 20:13:00,
2013-08-13 16:18:00,82.9,71.5,29.71,WNW,299,0.0,4.0,68,0.00,,,0.00,WUHU216DAVISVP2,2013-08-13 20:18:00,
2013-08-13 16:23:00,83.3,71.5,29.71,WNW,295,1.0,6.0,67,0.00,,,0.00,WUHU216DAVISVP2,2013-08-13 20:23:00,
2013-08-13 16:28:00,83.5,71.6,29.71,North,4,1.0,6.0,67,0.00,,,0.00,WUHU216DAVISVP2,2013-08-13 20:28:00,
2013-08-13 16:33:00,83.6,71.3,29.71,NNW,328,1.0,6.0,66,0.00,,,0.00,WUHU216DAVISVP2,2013-08-13 20:33:00,
2013-08-13 16:38:00,83.7,71.4,29.71,WSW,237,0.0,6.0,66,0.00,,,0.00,WUHU216DAVISVP2,2013-08-13 20:38:00,
2013-08-13 16:43:00,83.8,71.5,29.71,SW,222,0.0,4.0,66,0.00,,,0.00,WUHU216DAVISVP2,2013-08-13 20:43:00,
2013-08-13 16:48:00,83.9,71.6,29.71,WNW,301,0.0,4.0,66,0.00,,,0.00,WUHU216DAVISVP2,2013-08-13 20:48:00,
2013-08-13 16:53:00,84.1,71.8,29.71,North,349,0.0,3.0,66,0.00,,,0.00,WUHU216DAVISVP2,2013-08-13 20:53:00,
2013-08-13 16:58:00,84.2,71.4,29.70,WSW,253,0.0,2.0,65,0.00,,,0.00,WUHU216DAVISVP2,2013-08-13 20:58:00,
2013-08-13 17:03:00,84.1,70.9,29.70,West,278,1.0,4.0,64,0.00,,,0.00,WUHU216DAVISVP2,2013-08-13 21:03:00,
2013-08-13 17:08:00,84.0,70.8,29.70,NNW,335,2.0,4.0,64,0.00,,,0.00,WUHU216DAVISVP2,2013-08-13 21:08:00,
2013-08-13 17:13:00,83.7,70.9,29.70,NNW,331,0.0,4.0,65,0.00,,,0.00,WUHU216DAVISVP2,2013-08-13 21:13:00,
2013-08-13 17:18:00,83.5,71.2,29.70,NNW,330,0.0,4.0,66,0.00,,,0.00,WUHU216DAVISVP2,2013-08-13 21:18:00,
2013-08-13 17:23:00,83.7,71.4,29.70,NW,312,0.0,3.0,66,0.00,,,0.00,WUHU216DAVISVP2,2013-08-13 21:23:00,
2013-08-13 17:28:00,83.9,71.1,29.70,SSW,201,0.0,4.0,65,0.00,,,0.00,WUHU216DAVISVP2,2013-08-13 21:28:00,
2013-08-13 17:33:00,84.0,71.2,29.70,SSW,196,0.0,4.0,65,0.00,,,0.00,WUHU216DAVISVP2,2013-08-13 21:33:00,
2013-08-13 17:38:00,83.9,72.0,29.70,SSW,196,0.0,4.0,67,0.00,,,0.00,WUHU216DAVISVP2,2013-08-13 21:38:00,
2013-08-13 17:43:00,84.1,71.3,29.70,SW,214,0.0,4.0,65,0.00,,,0.00,WUHU216DAVISVP2,2013-08-13 21:43:00,
2013-08-13 17:48:00,84.2,71.9,29.70,WSW,247,0.0,4.0,66,0.00,,,0.00,WUHU216DAVISVP2,2013-08-13 21:48:00,
2013-08-13 17:53:00,84.2,71.4,29.70,WSW,247,0.0,4.0,65,0.00,,,0.00,WUHU216DAVISVP2,2013-08-13 21:53:00,
2013-08-13 17:58:00,84.2,71.9,29.70,WSW,247,0.0,4.0,66,0.00,,,0.00,WUHU216DAVISVP2,2013-08-13 21:58:00,
2013-08-13 18:03:00,83.9,71.6,29.70,WSW,247,1.0,3.0,66,0.00,,,0.00,WUHU216DAVISVP2,2013-08-13 22:03:00,
2013-08-13 18:08:00,83.9,72.0,29.70,WSW,247,0.0,1.0,67,0.00,,,0.00,WUHU216DAVISVP2,2013-08-13 22:08:00,
2013-08-13 18:13:00,83.9,72.5,29.70,WSW,247,0.0,1.0,68,0.00,,,0.00,WUHU216DAVISVP2,2013-08-13 22:13:00,
2013-08-13 18:18:00,83.6,72.6,29.71,WSW,240,1.0,2.0,69,0.00,,,0.00,WUHU216DAVISVP2,2013-08-13 22:18:00,
2013-08-13 18:23:00,83.0,72.4,29.71,SE,139,1.0,2.0,70,0.00,,,0.00,WUHU216DAVISVP2,2013-08-13 22:23:00,
2013-08-13 18:28:00,82.5,72.4,29.71,SE,139,0.0,2.0,71,0.00,,,0.00,WUHU216DAVISVP2,2013-08-13 22:28:00,
2013-08-13 18:33:00,82.2,72.5,29.71,SE,139,0.0,2.0,72,0.00,,,0.00,WUHU216DAVISVP2,2013-08-13 22:33:00,
2013-08-13 18:38:00,81.9,72.2,29.71,SE,139,0.0,2.0,72,0.00,,,0.00,WUHU216DAVISVP2,2013-08-13 22:38:00,
2013-08-13 18:43:00,81.7,72.4,29.71,SE,139,0.0,2.0,73,0.00,,,0.00,WUHU216DAVISVP2,2013-08-13 22:43:00,
2013-08-13 18:48:00,81.4,72.5,29.71,SE,139,0.0,2.0,74,0.00,,,0.00,WUHU216DAVISVP2,2013-08-13 22:48:00,
2013-08-13 18:53:00,81.2,72.3,29.71,SE,139,0.0,3.0,74,0.00,,,0.00,WUHU216DAVISVP2,2013-08-13 22:53:00,
2013-08-13 18:58:00,81.0,72.5,29.71,SE,139,0.0,3.0,75,0.00,,,0.00,WUHU216DAVISVP2,2013-08-13 22:58:00,
2013-08-13 19:03:00,80.9,72.8,29.70,SE,139,0.0,3.0,76,0.00,,,0.00,WUHU216DAVISVP2,2013-08-13 23:03:00,
2013-08-13 19:08:00,80.7,72.6,29.70,SE,139,0.0,3.0,76,0.00,,,0.00,WUHU216DAVISVP2,2013-08-13 23:08:00,
2013-08-13 19:13:00,80.7,72.6,29.71,SE,139,0.0,2.0,76,0.00,,,0.00,WUHU216DAVISVP2,2013-08-13 23:13:00,
2013-08-13 19:18:00,80.5,72.4,29.70,SE,139,0.0,2.0,76,0.00,,,0.00,WUHU216DAVISVP2,2013-08-13 23:18:00,
2013-08-13 19:23:00,80.4,72.7,29.70,SE,139,0.0,2.0,77,0.00,,,0.00,WUHU216DAVISVP2,2013-08-13 23:23:00,
2013-08-13 19:28:00,80.3,72.6,29.71,SE,139,0.0,2.0,77,0.00,,,0.00,WUHU216DAVISVP2,2013-08-13 23:28:00,
2013-08-13 19:33:00,80.2,72.9,29.71,SE,139,0.0,1.0,78,0.00,,,0.00,WUHU216DAVISVP2,2013-08-13 23:33:00,
2013-08-13 19:38:00,80.0,72.7,29.71,SE,139,0.0,1.0,78,0.00,,,0.00,WUHU216DAVISVP2,2013-08-13 23:38:00,
2013-08-13 19:43:00,79.8,72.5,29.71,SE,139,0.0,1.0,78,0.00,,,0.00,WUHU216DAVISVP2,2013-08-13 23:43:00,
2013-08-13 19:48:00,79.7,72.7,29.71,SE,139,0.0,1.0,79,0.00,,,0.00,WUHU216DAVISVP2,2013-08-13 23:48:00,
2013-08-13 19:53:00,79.5,72.5,29.72,SE,139,0.0,1.0,79,0.00,,,0.00,WUHU216DAVISVP2,2013-08-13 23:53:00,
2013-08-13 19:58:00,79.4,72.4,29.73,SE,139,1.0,2.0,79,0.00,,,0.00,WUHU216DAVISVP2,2013-08-13 23:58:00,
2013-08-13 20:03:00,79.2,72.6,29.72,SE,139,0.0,2.0,80,0.00,,,0.00,WUHU216DAVISVP2,2013-08-14 00:03:00,
2013-08-13 20:08:00,79.0,72.1,29.72,SE,139,0.0,2.0,79,0.00,,,0.00,WUHU216DAVISVP2,2013-08-14 00:08:00,
2013-08-13 20:13:00,78.9,72.3,29.71,SE,139,0.0,2.0,80,0.00,,,0.00,WUHU216DAVISVP2,2013-08-14 00:13:00,
2013-08-13 20:18:00,78.7,72.1,29.71,SE,139,0.0,1.0,80,0.00,,,0.00,WUHU216DAVISVP2,2013-08-14 00:18:00,
2013-08-13 20:23:00,78.5,71.9,29.71,SE,139,0.0,1.0,80,0.00,,,0.00,WUHU216DAVISVP2,2013-08-14 00:23:00,
2013-08-13 20:28:00,78.4,71.8,29.71,SE,139,0.0,1.0,80,0.00,,,0.00,WUHU216DAVISVP2,2013-08-14 00:28:00,
2013-08-13 20:33:00,78.4,72.2,29.71,SE,139,0.0,1.0,81,0.00,,,0.00,WUHU216DAVISVP2,2013-08-14 00:33:00,
2013-08-13 20:38:00,78.2,72.0,29.71,SE,139,0.0,1.0,81,0.00,,,0.00,WUHU216DAVISVP2,2013-08-14 00:38:00,
2013-08-13 20:43:00,78.2,72.0,29.72,SE,139,0.0,1.0,81,0.00,,,0.00,WUHU216DAVISVP2,2013-08-14 00:43:00,
2013-08-13 20:48:00,78.1,71.9,29.72,SE,139,0.0,0.0,81,0.00,,,0.00,WUHU216DAVISVP2,2013-08-14 00:48:00,
2013-08-13 20:53:00,78.1,71.9,29.71,SE,139,0.0,0.0,81,0.00,,,0.00,WUHU216DAVISVP2,2013-08-14 00:53:00,
2013-08-13 20:58:00,78.1,71.8,29.72,SE,139,0.0,0.0,81,0.00,,,0.00,WUHU216DAVISVP2,2013-08-14 00:58:00,
2013-08-13 21:03:00,78.1,72.2,29.71,SE,139,0.0,0.0,82,0.00,,,0.00,WUHU216DAVISVP2,2013-08-14 01:03:00,
2013-08-13 21:08:00,78.1,72.2,29.72,SE,139,0.0,1.0,82,0.00,,,0.00,WUHU216DAVISVP2,2013-08-14 01:08:00,
2013-08-13 21:13:00,77.9,73.4,29.73,SE,139,0.0,2.0,86,0.00,,,0.00,WUHU216DAVISVP2,2013-08-14 01:13:00,
2013-08-13 21:18:00,76.9,73.1,29.74,NNE,31,1.0,4.0,88,0.01,,,0.01,WUHU216DAVISVP2,2013-08-14 01:18:00,
2013-08-13 21:23:00,75.7,71.6,29.75,NW,320,5.0,11.0,87,0.02,,,0.02,WUHU216DAVISVP2,2013-08-14 01:23:00,
2013-08-13 21:28:00,74.3,71.2,29.76,North,4,0.0,11.0,90,0.02,,,0.02,WUHU216DAVISVP2,2013-08-14 01:28:00,
2013-08-13 21:33:00,73.5,70.7,29.77,South,179,0.0,11.0,91,0.03,,,0.03,WUHU216DAVISVP2,2013-08-14 01:33:00,
2013-08-13 21:38:00,72.9,70.4,29.76,South,179,0.0,11.0,92,0.04,,,0.04,WUHU216DAVISVP2,2013-08-14 01:38:00,
2013-08-13 21:43:00,72.4,70.3,29.74,South,179,0.0,4.0,93,0.04,,,0.04,WUHU216DAVISVP2,2013-08-14 01:43:00,
2013-08-13 21:48:00,72.1,70.2,29.74,South,179,0.0,3.0,94,0.04,,,0.04,WUHU216DAVISVP2,2013-08-14 01:48:00,
2013-08-13 21:53:00,72.0,70.1,29.74,South,179,1.0,2.0,94,0.05,,,0.05,WUHU216DAVISVP2,2013-08-14 01:53:00,
2013-08-13 21:58:00,71.9,70.4,29.74,South,179,0.0,1.0,95,0.05,,,0.05,WUHU216DAVISVP2,2013-08-14 01:58:00,
2013-08-13 22:03:00,71.9,70.4,29.74,South,179,0.0,1.0,95,0.06,,,0.06,WUHU216DAVISVP2,2013-08-14 02:03:00,
2013-08-13 22:08:00,71.9,70.4,29.74,South,179,0.0,1.0,95,0.06,,,0.06,WUHU216DAVISVP2,2013-08-14 02:08:00,
2013-08-13 22:13:00,71.8,70.6,29.75,South,179,0.0,1.0,96,0.06,,,0.06,WUHU216DAVISVP2,2013-08-14 02:13:00,
2013-08-13 22:18:00,71.8,70.6,29.75,South,179,0.0,1.0,96,0.05,,,0.06,WUHU216DAVISVP2,2013-08-14 02:18:00,
2013-08-13 22:23:00,71.8,70.6,29.74,South,179,0.0,1.0,96,0.04,,,0.06,WUHU216DAVISVP2,2013-08-14 02:23:00,
2013-08-13 22:28:00,71.8,70.6,29.74,South,179,0.0,0.0,96,0.05,,,0.07,WUHU216DAVISVP2,2013-08-14 02:28:00,
2013-08-13 22:33:00,71.9,70.7,29.75,South,179,0.0,1.0,96,0.04,,,0.07,WUHU216DAVISVP2,2013-08-14 02:33:00,
2013-08-13 22:38:00,71.8,70.6,29.75,South,179,0.0,2.0,96,0.03,,,0.07,WUHU216DAVISVP2,2013-08-14 02:38:00,
2013-08-13 22:43:00,71.8,70.6,29.75,South,179,1.0,2.0,96,0.03,,,0.07,WUHU216DAVISVP2,2013-08-14 02:43:00,
2013-08-13 22:48:00,71.6,70.4,29.75,South,179,0.0,2.0,96,0.03,,,0.07,WUHU216DAVISVP2,2013-08-14 02:48:00,
2013-08-13 22:53:00,71.4,70.2,29.75,South,179,1.0,2.0,96,0.02,,,0.07,WUHU216DAVISVP2,2013-08-14 02:53:00,
2013-08-13 22:58:00,71.3,70.1,29.75,South,179,0.0,2.0,96,0.03,,,0.08,WUHU216DAVISVP2,2013-08-14 02:58:00,
2013-08-13 23:03:00,71.2,70.0,29.75,South,179,0.0,2.0,96,0.02,,,0.08,WUHU216DAVISVP2,2013-08-14 03:03:00,
2013-08-13 23:08:00,71.1,70.2,29.75,South,179,0.0,2.0,97,0.02,,,0.08,WUHU216DAVISVP2,2013-08-14 03:08:00,
2013-08-13 23:13:00,71.0,70.1,29.76,South,179,0.0,1.0,97,0.02,,,0.08,WUHU216DAVISVP2,2013-08-14 03:13:00,
2013-08-13 23:18:00,71.0,70.1,29.76,South,179,0.0,1.0,97,0.02,,,0.08,WUHU216DAVISVP2,2013-08-14 03:18:00,
2013-08-13 23:23:00,70.9,70.0,29.76,South,179,0.0,1.0,97,0.02,,,0.08,WUHU216DAVISVP2,2013-08-14 03:23:00,
2013-08-13 23:28:00,70.9,70.0,29.76,South,179,0.0,1.0,97,0.01,,,0.08,WUHU216DAVISVP2,2013-08-14 03:28:00,
2013-08-13 23:33:00,70.9,70.0,29.76,South,179,0.0,1.0,97,0.01,,,0.08,WUHU216DAVISVP2,2013-08-14 03:33:00,
2013-08-13 23:38:00,70.9,70.0,29.76,South,179,0.0,1.0,97,0.01,,,0.08,WUHU216DAVISVP2,2013-08-14 03:38:00,
2013-08-13 23:43:00,70.8,69.9,29.76,South,179,1.0,1.0,97,0.01,,,0.08,WUHU216DAVISVP2,2013-08-14 03:43:00,
2013-08-13 23:48:00,70.8,69.9,29.76,South,179,0.0,1.0,97,0.01,,,0.08,WUHU216DAVISVP2,2013-08-14 03:48:00,
2013-08-13 23:53:00,70.7,69.8,29.76,South,179,0.0,1.0,97,0.01,,,0.08,WUHU216DAVISVP2,2013-08-14 03:53:00,
2013-08-13 23:58:00,70.7,69.8,29.76,South,179,0.0,1.0,97,0.00,,,0.08,WUHU216DAVISVP2,2013-08-14 03:58:00,